Погода в Скегнессе

Великобритания     53°08′50″N   0°20′17″E
темп.,
°C
ветер,
м/с
пор.,
м/с
влажн.,
%
обл.,
%
осадки,
мм/ч
давл.,
гПа
погр.,
м
15 апреля, чт
чт1501:00+2ссв33867 0.0 103591
04:00+2с338499 0.0 103497
07:00+2с34815 0.0 1035145
10:00+7ссв55675 0.0 1035970
13:00+8ссв55635 0.0 10351144
16:00+8ссв56625 0.0 1034935
19:00+6ссв46765 0.0 1033433
22:00+3с35925 0.0 1033110
16 апреля, пт
пт1601:00+3всв33905 0.0 103378
04:00+2св22895 0.0 103262
07:00+3с11885 0.0 103367
10:00+7в33605 0.0 1033945
13:00+8в43501 0.0 10321092
16:00+8в43532 0.0 1032879
19:00+6в34685 0.0 1032206
22:00+3в23740 0.0 103260
17 апреля, сб
сб1701:00+2всв11790 0.0 103147
04:00+1ссз22825 0.0 103135
07:00+2ссз22814 0.0 103146
10:00+7св22590 0.0 1030756
13:00+9всв32545 0.0 1029957
16:00+8в335416 0.0 1028708
19:00+6в3373100 0.0 1028119
22:00+3вюв238799 0.0 102841
18 апреля, вс
вс1801:00+4ю2384100 0.0 102750
04:00+3юз2284100 0.0 102641
07:00+4ююз2383100 0.0 1025110
10:00+7ю3471100 0.0 1024345
13:00+11ю3462100 0.0 1023967
16:00+11ююв346498 0.0 1022516
19:00+8юв457791 0.0 1022134
22:00+7ююв3683100 0.0 102297
19 апреля, пн
пн1901:00+7ю368582 0.0 1021124
04:00+6юз3485100 0.0 102085
07:00+6ююз358595 0.0 1019100
10:00+10ю4566100 0.0 1019439
13:00+13ю456392 0.0 10181101
16:00+13ю455386 0.0 10161182
19:00+10ююв3473100 0.0 101583
22:00+8ююз3379100 0.0 101538